Weather History for KOPM - February, 2013

Change the Weather History Date:

Monday, February 18, 2013

  Actual Average Record
Temperature  
Mean Temperature 67 °F -  
Max Temperature 68 °F - - ()
Min Temperature 66 °F - - ()
Cooling Degree Days 2    
Growing Degree Days 17 (Base 50)    
Moisture  
Dew Point 62 °F    
Average Humidity 85    
Maximum Humidity 88    
Minimum Humidity 78    
Precipitation  
Precipitation 0.00 in - - ()
Sea Level Pressure  
Sea Level Pressure 29.95 in    
Wind  
Wind Speed 20 mph (SSE)    
Max Wind Speed 23 mph    
Max Gust Speed 21 mph    
Visibility 6 miles    
Events      
T = Trace of Precipitation, MM = Missing Value Source: NWS Daily Summary

Daily Weather History Graph

Daily Weather History Graph

Search for Another Location

Airport or City:

Trip Planner

Search our weather history database for the weather conditions in past years. The results will help you decide how hot, cold, wet, or windy it might be!

Date:

Astronomy

Feb. 18, 2013 Rise Set
Actual Time 7:01 AM CST 6:22 PM CST
Civil Twilight 6:37 AM CST 6:45 PM CST
Nautical Twilight 6:10 AM CST 7:13 PM CST
Astronomical Twilight 5:43 AM CST 7:40 PM CST
Moon 12:24 PM CST (2/18) 1:27 AM CST (2/18)
Length of Visible Light 12h 08m
Length of Day
11h 20m
First Quarter, 58% of the Moon is Illuminated
Feb 18
First Quarter
Feb 25
Full
Mar 4
Last Quarter
Mar 11
New
Mar 19
First Quarter

Hourly Weather History & Observations

Time (CST) Temp. Dew Point Humidity Pressure Visibility Wind Dir Wind Speed Gust Speed Precip Events Conditions
12:15 AM 66.2 °F 59.0 °F 78% 30.02 in 9.0 mi SE 23.0 mph - N/A   Overcast
12:35 AM 66.2 °F 60.8 °F 83% 30.02 in 8.0 mi SE 23.0 mph - N/A   Overcast
12:55 AM 66.2 °F 60.8 °F 83% 30.01 in 8.0 mi SE 21.9 mph - N/A   Overcast
1:15 AM 66.2 °F 60.8 °F 83% 30.00 in 8.0 mi SE 21.9 mph - N/A   Overcast
1:35 AM 66.2 °F 60.8 °F 83% 30.00 in 8.0 mi SE 21.9 mph - N/A   Overcast
1:55 AM 68.0 °F 60.8 °F 78% 29.99 in 8.0 mi SE 23.0 mph - N/A   Overcast
2:15 AM 68.0 °F 60.8 °F 78% 29.99 in 8.0 mi SE 20.7 mph - N/A   Overcast
2:35 AM 66.2 °F 60.8 °F 83% 29.98 in 8.0 mi SE 20.7 mph - N/A   Overcast
2:55 AM 66.2 °F 60.8 °F 83% 29.97 in 7.0 mi SE 20.7 mph - N/A   Overcast
3:15 AM 66.2 °F 60.8 °F 83% 29.96 in 8.0 mi SE 19.6 mph - N/A   Overcast
3:35 AM 66.2 °F 60.8 °F 83% 29.96 in 7.0 mi SE 19.6 mph - N/A   Overcast
3:55 AM 66.2 °F 60.8 °F 83% 29.96 in 7.0 mi SE 18.4 mph - N/A   Overcast
4:15 AM 66.2 °F 60.8 °F 83% 29.95 in 7.0 mi SE 18.4 mph - N/A   Overcast
4:35 AM 66.2 °F 60.8 °F 83% 29.94 in 6.0 mi SE 19.6 mph - N/A   Haze
4:55 AM 66.2 °F 62.6 °F 88% 29.94 in 7.0 mi SE 20.7 mph - N/A   Overcast
5:15 AM 66.2 °F 62.6 °F 88% 29.93 in 7.0 mi SE 19.6 mph - N/A   Overcast
5:35 AM 66.2 °F 62.6 °F 88% 29.93 in 7.0 mi SE 19.6 mph - N/A   Overcast
5:55 AM 66.2 °F 60.8 °F 83% 29.93 in 7.0 mi SE 20.7 mph - N/A   Overcast
6:15 AM 66.2 °F 62.6 °F 88% 29.93 in 7.0 mi SE 20.7 mph - N/A   Overcast
6:55 AM 66.2 °F 62.6 °F 88% 29.93 in 7.0 mi SE 21.9 mph - N/A   Overcast
7:15 AM 66.2 °F 62.6 °F 88% 29.93 in 5.0 mi SE 21.9 mph - N/A   Haze
7:35 AM 66.2 °F 62.6 °F 88% 29.93 in 5.0 mi SE 21.9 mph - N/A   Haze
7:55 AM 66.2 °F 62.6 °F 88% 29.94 in 5.0 mi SE 20.7 mph - N/A   Haze
8:35 AM 66.2 °F 62.6 °F 88% 29.95 in 4.0 mi SSE 20.7 mph - N/A   Haze
8:55 AM 66.2 °F 62.6 °F 88% 29.95 in 4.0 mi SSE 19.6 mph - N/A   Haze
9:15 AM 66.2 °F 62.6 °F 88% 29.95 in 4.0 mi SSE 19.6 mph - N/A   Haze
9:55 AM 66.2 °F 62.6 °F 88% 29.96 in 4.0 mi SSE 19.6 mph - N/A   Haze
10:15 AM 66.2 °F 62.6 °F 88% 29.97 in 5.0 mi SSE 18.4 mph - N/A   Haze
10:35 AM 66.2 °F 62.6 °F 88% 29.97 in 4.0 mi SSE 17.3 mph - N/A   Haze
10:55 AM 66.2 °F 62.6 °F 88% 29.97 in 4.0 mi SSE 18.4 mph - N/A   Partly Cloudy
11:15 AM 66.2 °F 62.6 °F 88% 29.96 in 4.0 mi SSE 17.3 mph - N/A   Haze
11:35 AM 66.2 °F 62.6 °F 88% 29.96 in 4.0 mi SSE 18.4 mph - N/A   Haze
11:55 AM 66.2 °F 62.6 °F 88% 29.94 in 4.0 mi SE 19.6 mph - N/A   Haze
12:15 PM 66.2 °F 62.6 °F 88% 29.94 in 4.0 mi SSE 19.6 mph - N/A   Mostly Cloudy
12:35 PM 66.2 °F 62.6 °F 88% 29.94 in 4.0 mi SSE 17.3 mph - N/A   Scattered Clouds
12:55 PM 66.2 °F 62.6 °F 88% 29.94 in 4.0 mi SSE 17.3 mph - N/A   Haze
1:15 PM 66.2 °F 62.6 °F 88% 29.93 in 4.0 mi SSE 18.4 mph - N/A   Haze
1:35 PM 66.2 °F 62.6 °F 88% 29.92 in 4.0 mi SSE 20.7 mph - N/A   Haze
1:55 PM 68.0 °F 62.6 °F 83% 29.91 in 4.0 mi SSE 19.6 mph - N/A   Haze
2:15 PM 68.0 °F 62.6 °F 83% 29.91 in 4.0 mi SSE 18.4 mph - N/A   Haze
2:35 PM 68.0 °F 62.6 °F 83% 29.91 in 4.0 mi SSE 18.4 mph - N/A   Haze
2:55 PM 68.0 °F 62.6 °F 83% 29.90 in 4.0 mi SSE 19.6 mph - N/A   Haze
3:35 PM 68.0 °F 62.6 °F 83% 29.88 in 5.0 mi SSE 19.6 mph - N/A   Haze
3:55 PM 68.0 °F 62.6 °F 83% 29.89 in 5.0 mi SSE 18.4 mph - N/A   Haze
4:15 PM 68.0 °F 62.6 °F 83% 29.89 in 5.0 mi SSE 18.4 mph - N/A   Haze
4:35 PM 68.0 °F 62.6 °F 83% 29.90 in 5.0 mi SSE 17.3 mph - N/A   Haze
5:15 PM 68.0 °F 62.6 °F 83% 29.90 in 5.0 mi SSE 18.4 mph - N/A   Haze
5:35 PM 68.0 °F 62.6 °F 83% 29.90 in 5.0 mi SSE 17.3 mph - N/A   Haze
5:55 PM 68.0 °F 62.6 °F 83% 29.90 in 5.0 mi SSE 18.4 mph - N/A   Haze
6:15 PM 66.2 °F 62.6 °F 88% 29.91 in 4.0 mi SE 17.3 mph - N/A   Clear
6:55 PM 66.2 °F 62.6 °F 88% 29.92 in 5.0 mi SSE 16.1 mph - N/A   Clear
7:15 PM 66.2 °F 62.6 °F 88% 29.93 in 6.0 mi SSE 16.1 mph - N/A   Clear
7:35 PM 68.0 °F 62.6 °F 83% 29.93 in 6.0 mi SSE 17.3 mph - N/A   Haze
7:55 PM 68.0 °F 62.6 °F 83% 29.94 in 6.0 mi SSE 17.3 mph - N/A   Haze
8:15 PM 68.0 °F 62.6 °F 83% 29.96 in 6.0 mi SSE 16.1 mph - N/A   Clear
8:35 PM 68.0 °F 62.6 °F 83% 29.96 in 6.0 mi SE 18.4 mph - N/A   Haze
8:55 PM 68.0 °F 62.6 °F 83% 29.96 in 6.0 mi SSE 19.6 mph - N/A   Haze
9:15 PM 66.2 °F 62.6 °F 88% 29.97 in 6.0 mi SSE 18.4 mph - N/A   Clear
9:35 PM 68.0 °F 62.6 °F 83% 29.98 in 6.0 mi SSE 17.3 mph - N/A   Clear
9:55 PM 68.0 °F 62.6 °F 83% 29.98 in 6.0 mi SSE 13.8 mph 20.7 mph N/A   Haze
10:15 PM 66.2 °F 62.6 °F 88% 29.99 in 6.0 mi SSE 12.7 mph - N/A   Clear
10:35 PM 66.2 °F 62.6 °F 88% 30.00 in 6.0 mi South 13.8 mph - N/A   Clear
10:55 PM 66.2 °F 62.6 °F 88% 30.00 in 6.0 mi South 13.8 mph - N/A   Clear
11:15 PM 66.2 °F 62.6 °F 88% 30.01 in 6.0 mi South 11.5 mph - N/A   Clear
11:35 PM 66.2 °F 62.6 °F 88% 30.01 in 6.0 mi South 12.7 mph - N/A   Clear
11:55 PM 66.2 °F 62.6 °F 88% 30.01 in 6.0 mi South 9.2 mph - N/A   Clear